AirNav   Everest Fuels
 
 524 users online  

WI43 Atkins Ridge Airport
Daleyville, Wisconsin, USA

GOING TO DALEYVILLE?


FAA INFORMATION EFFECTIVE 26 JANUARY 2023

Location

FAA Identifier: WI43
Lat/Long: 42-56-55.9940N 089-49-31.0000W
42-56.933233N 089-49.516667W
42.9488872,-89.8252778
(estimated)
Elevation: 1090 ft. / 332 m (estimated)
Variation: 01E (1985)
From city: 2 miles N of DALEYVILLE, WI
Time zone: UTC -6 (UTC -5 during Daylight Saving Time)
Zip code: 53517

Airport Operations

Airport use: Private use. Permission required prior to landing
Activation date: 11/1988
Control tower: no
ARTCC: CHICAGO CENTER
FSS: GREEN BAY FLIGHT SERVICE STATION
Attendance: UNATNDD
Wind indicator: yes
Segmented circle: no

Airport Communications

WX AWOS-3 at C29 (16 nm NE): 118.675 (608-833-1686)
WX AWOS-3 at MRJ (18 nm W): 118.525 (608-987-2157)

Nearby radio navigation aids

VOR radial/distance  VOR name  Freq  Var
MSNr238/24.3MADISON VORTAC108.6003E
DLLr181/36.2DELLS VORTAC117.0003E
JVLr303/39.4JANESVILLE VOR/DME114.3003E

Airport Services

Runway Information

Runway 18/36

Dimensions: 2400 x 50 ft. / 732 x 15 m
Surface: turf
RUNWAY 18  RUNWAY 36
Traffic pattern: leftleft

Airport Ownership and Management from official FAA records

Ownership: Privately-owned
Owner: DANIEL S ATKINS
517 HALF MILE RD
VERONA, WI 53593
Phone 608-437-4567
Manager: DANIEL S ATKINS
517 HALF MILE RD
VERONA, WI 53593
Phone 608-845-6644

Airport Operational Statistics

Aircraft based on the field: 1
Single engine airplanes: 1
    

Additional Remarks

FOR CD CTC CHICAGO ARTCC AT 630-906-8921.

Instrument Procedures

There are no published instrument procedures at WI43.

Some nearby airports with instrument procedures:

C29 - Middleton Municipal Airport - Morey Field (16 nm NE)
KMRJ - Iowa County Airport (18 nm W)
91C - Sauk/Prairie Airport (21 nm N)
KLNR - Tri-County Regional Airport (22 nm NW)
KEFT - Monroe Municipal Airport (23 nm SE)
 
Loc | Ops | Rwys | IFR | FBO | Links
Com | Nav | Svcs | Stats | Notes
Area around WI43 (Atkins Ridge Airport)
 
Road maps at: MapQuest Bing Google
 
Aerial photo
No photo
 
Sectional chart

 
Airport distance calculator
Flying to Atkins Ridge Airport? Find the distance to fly.

From to WI43

Sunrise and sunset
Times for 09-Feb-2023
 Local
(UTC-6)
 Zulu
(UTC)
Morning civil twilight06:3612:36
Sunrise07:0613:06
Sunset17:2123:21
Evening civil twilight17:5123:51

Current date and time
Zulu (UTC)  09-Feb-2023 09:04:55
Local (UTC-6)  09-Feb-2023 03:04:55
 
METAR
KC29 
16nm NE 
090855Z AUTO 04006KT 10SM SCT075 OVC085 02/M01 A2985 RMK AO1 T00151008
KLNR 
22nm NW 
090856Z AUTO 00000KT 10SM OVC100 01/M02 A2985 RMK AO2 SLP108 T00061022 58038
KEFT 
23nm SE 
090855Z AUTO 05007KT 10SM -DZ OVC040 01/M01 A2981 RMK AO2 T00101010
KMSN 
24nm NE 
090853Z AUTO 04005KT 8SM OVC070 01/M02 A2985 RMK AO2 SLP115 T00111022 58034
KPVB 
31nm SW 
090855Z AUTO 04006KT 10SM BKN060 OVC070 01/M01 A2981 RMK AO1 T00141010
TAF
KMSN 
24nm NE 
090540Z 0906/1006 00000KT P6SM OVC150 FM091100 04011KT 6SM -RASN BR OVC060 FM091500 03017G28KT 3/4SM -SN BR OVC009 FM092100 33016G28KT 1 1/2SM -SN BR OVC011 FM092300 31013G24KT P6SM VCSH OVC012
NOTAMs
Click for the latest NOTAMs
NOTAMs are issued by the DoD/FAA and will open in a separate window not controlled by AirNav.

 

 
 

Would you like to see your business listed on this page?

 If your business provides an interesting product or service to pilots, flight crews, aircraft, or users of the Atkins Ridge Airport, you should consider listing it here.  To start the listing process, click on the button below
 
Add a business
 

Other Pages about Atkins Ridge Airport

Update a link
 
Copyright © AirNav, LLC. All rights reserved. Privacy Policy  Contact